Location: Sternwarte Stuttgart
(48.7670°N, 9.1830°E)
Time: 10:19:25
(UTC+01:00)

ISS - All Passes

Search period start: 21 December 2014 00:00
Search period end: 31 December 2014 00:00
Orbit: 404 x 414 km, 51.6° (Epoch: 21 December)

Date Brightness Start Highest point End Pass type
(mag) Time Alt. Az. Time Alt. Az. Time Alt. Az.
21 Dec - 14:28:17 10° SW 14:31:28 46° SSE 14:34:38 10° ENE daylight
21 Dec - 16:04:46 10° W 16:08:02 58° NNW 16:11:17 10° ENE daylight
21 Dec - 17:41:39 10° WNW 17:44:54 54° N 17:48:08 10° E visible
21 Dec - 19:18:18 10° WNW 19:21:31 54° SSW 19:24:43 10° SE visible
21 Dec - 20:56:40 10° WSW 20:57:30 11° SW 20:58:19 10° SSW night (unlit)
22 Dec - 13:37:52 10° SSW 13:40:47 29° SE 13:43:42 10° E daylight
22 Dec - 15:13:53 10° WSW 15:17:11 72° NNW 15:20:29 10° ENE daylight
22 Dec - 16:50:47 10° WNW 16:54:01 49° N 16:57:14 10° E daylight
22 Dec - 18:27:27 10° WNW 18:30:45 81° SSW 18:34:02 10° ESE visible
22 Dec - 20:04:40 10° W 20:06:56 18° SW 20:09:12 10° S visible
23 Dec - 12:47:43 10° S 12:50:07 19° SE 12:52:32 10° E daylight
23 Dec - 14:23:01 10° WSW 14:26:20 84° SSE 14:29:39 10° ENE daylight
23 Dec - 15:59:52 10° W 16:03:05 49° N 16:06:18 10° ENE daylight
23 Dec - 17:36:36 10° WNW 17:39:54 75° NNE 17:43:11 10° ESE visible
23 Dec - 19:13:25 10° W 19:16:17 27° SW 19:19:07 10° SSE visible
24 Dec - 11:58:14 10° SSE 11:59:29 12° SE 12:00:43 10° ESE daylight
24 Dec - 13:32:14 10° SW 13:35:29 57° SSE 13:38:44 10° ENE daylight
24 Dec - 15:08:52 10° W 15:12:07 53° N 15:15:22 10° ENE daylight
24 Dec - 16:45:42 10° WNW 16:48:59 59° NNE 16:52:14 10° E daylight
24 Dec - 18:22:22 10° WNW 18:25:31 43° SSW 18:28:38 10° SE visible
25 Dec - 12:41:34 10° SW 12:44:38 37° SSE 12:47:44 10° ENE daylight
25 Dec - 14:17:50 10° W 14:21:08 63° NNW 14:24:25 10° ENE daylight
25 Dec - 15:54:44 10° WNW 15:57:58 51° N 16:01:12 10° E daylight
25 Dec - 17:31:22 10° WNW 17:34:39 66° SSW 17:37:54 10° ESE visible
25 Dec - 19:08:58 10° WSW 19:10:43 14° SW 19:12:27 10° SSW visible
26 Dec - 11:51:06 10° SSW 11:53:49 24° SE 11:56:32 10° E daylight
26 Dec - 13:26:48 10° WSW 13:30:07 82° NNW 13:33:26 10° ENE daylight
26 Dec - 15:03:41 10° WNW 15:06:54 48° N 15:10:07 10° ENE daylight
26 Dec - 16:40:22 10° WNW 16:43:41 86° NNE 16:46:58 10° ESE daylight
26 Dec - 18:17:20 10° W 18:19:57 22° SW 18:22:33 10° SSE visible
27 Dec - 11:01:01 10° S 11:03:00 15° SE 11:05:00 10° E daylight
27 Dec - 12:35:49 10° WSW 12:39:07 71° SSE 12:42:24 10° ENE daylight
27 Dec - 14:12:34 10° W 14:15:48 50° N 14:19:02 10° ENE daylight
27 Dec - 15:49:20 10° WNW 15:52:38 66° NNE 15:55:54 10° E daylight
27 Dec - 17:26:03 10° W 17:29:05 34° SSW 17:32:05 10° SSE visible
28 Dec - 11:44:55 10° SW 11:48:06 46° SSE 11:51:18 10° ENE daylight
28 Dec - 13:21:23 10° W 13:24:40 57° N 13:27:56 10° ENE daylight
28 Dec - 14:58:15 10° WNW 15:01:30 54° N 15:04:45 10° E daylight
28 Dec - 16:34:53 10° WNW 16:38:07 53° SSW 16:41:19 10° SE daylight
28 Dec - 18:13:19 10° WSW 18:14:03 11° SW 18:14:48 10° SSW visible
29 Dec - 10:54:11 10° SSW 10:57:07 30° SE 11:00:03 10° E daylight
29 Dec - 12:30:12 10° WSW 12:33:30 72° NNW 12:36:49 10° ENE daylight
29 Dec - 14:07:05 10° WNW 14:10:19 49° N 14:13:32 10° E daylight
29 Dec - 15:43:44 10° WNW 15:47:02 80° SSW 15:50:19 10° ESE daylight
29 Dec - 17:20:55 10° W 17:23:12 17° SW 17:25:27 10° S visible
30 Dec - 10:03:44 10° S 10:06:09 19° SE 10:08:34 10° E daylight
30 Dec - 11:39:02 10° WSW 11:42:20 85° SSE 11:45:39 10° ENE daylight
30 Dec - 13:15:51 10° W 13:19:04 49° N 13:22:18 10° ENE daylight
30 Dec - 14:52:34 10° WNW 14:55:52 75° NNE 14:59:10 10° ESE daylight
30 Dec - 16:29:22 10° W 16:32:13 27° SW 16:35:04 10° SSE daylight
